Location: Unspecified
(0.0000°N, 0.0000°E)
Time: 21:42:09
(UTC+00:00)

deb Explorer IX - All Passes

Search period start: 22 July 2014 00:00
Search period end: 01 August 2014 00:00
Orbit: 554 x 1223 km, 38.8° (Epoch: 22 July)

Date Brightness Start Highest point End Pass type
(mag) Time Alt. Az. Time Alt. Az. Time Alt. Az.
22 Jul - 00:32:45 10° NNW 00:38:46 32° NE 00:43:55 10° E night (unlit)
22 Jul - 02:21:31 10° WNW 02:27:26 43° SW 02:32:23 10° SSE night (unlit)
22 Jul - 11:39:38 10° SSE 11:40:54 11° SE 11:42:12 10° ESE daylight
22 Jul - 13:23:44 10° SW 13:29:05 84° SE 13:35:36 10° NE daylight
22 Jul - 15:14:02 10° WNW 15:18:11 18° NW 15:22:47 10° N daylight
23 Jul - 00:30:08 10° NNW 00:36:47 44° NE 00:42:23 10° ESE night (unlit)
23 Jul - 02:19:51 10° WNW 02:25:18 30° SW 02:29:58 10° SSE night (unlit)
23 Jul - 11:35:49 10° S 11:38:50 16° SE 11:42:08 10° E daylight
23 Jul - 13:21:47 10° WSW 13:27:01 68° NW 13:33:24 10° NE daylight
23 Jul - 15:13:40 10° WNW 15:16:21 13° NNW 15:19:12 10° N daylight
23 Jul - 22:41:56 10° N 22:45:14 13° NNE 22:48:21 10° ENE visible
24 Jul - 00:27:43 10° NW 00:34:45 63° NE 00:40:38 10° ESE night (unlit)
24 Jul - 02:18:28 10° W 02:23:10 22° SW 02:27:19 10° S night (unlit)
24 Jul - 11:32:56 10° S 11:36:44 23° SE 11:41:03 10° E daylight
24 Jul - 13:20:00 10° WSW 13:25:00 46° NW 13:31:01 10° NNE daylight
24 Jul - 22:38:24 10° N 22:43:22 19° NE 22:47:57 10° ENE visible
25 Jul - 00:25:26 10° NW 00:32:40 87° NE 00:38:43 10° SE night (unlit)
25 Jul - 02:17:30 10° WSW 02:21:04 15° SW 02:24:19 10° S night (unlit)
25 Jul - 11:30:23 10° SSW 11:34:37 34° SE 11:39:33 10° ENE daylight
25 Jul - 13:18:26 10° W 13:23:02 32° NW 13:28:27 10° NNE daylight
25 Jul - 22:35:22 10° NNW 22:41:26 26° NE 22:46:57 10° E visible
26 Jul - 00:23:18 10° NW 00:30:33 69° SW 00:36:38 10° SE night (unlit)
26 Jul - 02:17:42 10° SW 02:19:00 11° SW 02:20:16 10° SSW night (unlit)
26 Jul - 11:28:03 10° SSW 11:32:31 51° SE 11:37:47 10° ENE daylight
26 Jul - 13:17:09 10° W 13:21:07 22° NW 13:25:39 10° NNE daylight
26 Jul - 22:32:35 10° NNW 22:39:27 35° NE 22:45:36 10° ESE visible
27 Jul - 00:21:21 10° WNW 00:28:23 50° SW 00:34:23 10° SSE night (unlit)
27 Jul - 11:25:54 10° SW 11:30:26 79° SE 11:35:48 10° NE daylight
27 Jul - 13:16:20 10° WNW 13:19:15 15° NW 13:22:25 10° N daylight
27 Jul - 20:46:40 10° NNE 20:47:35 10° NNE 20:48:29 10° NE visible
27 Jul - 22:30:00 10° NNW 22:37:24 47° NE 22:44:00 10° ESE visible
28 Jul - 00:19:35 10° WNW 00:26:13 37° SW 00:32:00 10° SSE night (unlit)
28 Jul - 09:38:39 10° SSE 09:40:20 12° SE 09:42:04 10° ESE daylight
28 Jul - 11:23:56 10° WSW 11:28:23 67° NW 11:33:38 10° NE daylight
28 Jul - 20:41:42 10° N 20:45:43 15° NE 20:49:39 10° ENE visible
28 Jul - 22:27:33 10° NW 22:35:19 63° NE 22:42:12 10° ESE visible
29 Jul - 00:18:02 10° W 00:24:04 27° SW 00:29:25 10° SSE night (unlit)
29 Jul - 09:35:18 10° S 09:38:17 18° SE 09:41:27 10° E daylight
29 Jul - 11:22:09 10° WSW 11:26:23 42° NW 11:31:16 10° NNE daylight
29 Jul - 20:38:20 10° N 20:43:47 20° NE 20:49:04 10° E visible
29 Jul - 22:25:16 10° NW 22:33:11 84° NE 22:40:14 10° SE visible
30 Jul - 00:16:48 10° W 00:21:56 20° SW 00:26:37 10° S night (unlit)
30 Jul - 09:32:35 10° SSW 09:36:13 28° SE 09:40:07 10° ENE daylight
30 Jul - 11:20:37 10° W 11:24:25 27° NW 11:28:42 10° NNE daylight
30 Jul - 20:35:22 10° NNW 20:41:47 27° NE 20:47:59 10° E visible
30 Jul - 22:23:07 10° NW 22:31:01 74° SW 22:38:06 10° SE visible
31 Jul - 00:16:03 10° WSW 00:19:51 15° SW 00:23:26 10° S night (unlit)
31 Jul - 09:30:10 10° SSW 09:34:08 44° SE 09:38:27 10° ENE daylight
31 Jul - 11:19:27 10° W 11:22:29 18° NW 11:25:48 10° N daylight
31 Jul - 20:32:37 10° NNW 20:39:43 35° NE 20:46:34 10° ESE visible
31 Jul - 22:21:07 10° WNW 22:28:50 56° SW 22:35:51 10° SE visible
